EW9274 Weather Reports


Display with metric or nautical units.
time (UTC)temp
F
wind
direction
speed
MPH
gust
MPH
rain 1hr
in
rain 24hr
in
rain mn
in
humidity
%
barometer
mb
20260508080503 35 153 1.0 2.0 0.00 0.00 0.00 1011.2
20260508080042 35 153 0.0 2.0 0.00 0.00 0.00 1011.3
20260508075503 36 153 0.0 2.0 0.00 0.00 0.00 78 1011.3
20260508075008 36 153 0.0 2.0 0.00 0.00 0.00 78 1011.3
20260508074526 36 153 0.0 2.0 0.00 0.00 0.00 79 1011.3
20260508074003 36 153 0.0 2.0 0.00 0.00 0.00 79 1011.3
20260508073505 35 152 0.0 2.0 0.00 0.00 0.00 80 1011.3
20260508073028 35 234 0.0 2.0 0.00 0.00 0.00 80 1011.6
20260508072505 35 234 0.0 2.0 0.00 0.00 0.00 80 1011.6
20260508072005 35 234 0.0 2.0 0.00 0.00 0.00 79 1011.7
20260508071526 35 234 0.0 2.0 0.00 0.00 0.00 79 1011.6
20260508071003 36 234 0.0 2.0 0.00 0.00 0.00 79 1011.8
20260508070508 36 234 1.0 2.0 0.00 0.00 0.00 78 1011.8
20260508070027 36 259 0.0 2.0 0.00 0.00 0.00 78 1011.8
20260508065503 36 259 1.0 2.0 0.00 0.00 0.00 78 1011.8
20260508065006 36 259 0.0 2.0 0.00 0.00 0.00 77 1011.9
20260508064517 36 259 0.0 2.0 0.00 0.00 0.00 76 1011.9
20260508064003 37 259 1.0 2.0 0.00 0.00 0.00 76 1011.9
20260508063510 37 259 0.0 2.0 0.00 0.00 0.00 76 1011.8
20260508063006 37 259 0.0 2.0 0.00 0.00 0.00 75 1011.8
20260508062507 37 259 0.0 2.0 0.00 0.00 0.00 75 1011.9
20260508062009 37 259 0.0 2.0 0.00 0.00 0.00 74 1011.9
20260508061510 38 259 0.0 2.0 0.00 0.00 0.00 73 1011.9
20260508061007 38 259 0.0 2.0 0.00 0.00 0.00 73 1012.0
20260508060508 38 259 0.0 2.0 0.00 0.00 0.00 71 1012.0
20260508060009 38 41 0.0 2.0 0.00 0.00 0.00 70 1012.0
20260508055507 39 41 0.0 2.0 0.00 0.00 0.00 70 1012.1
20260508055007 39 40 0.0 2.0 0.00 0.00 0.00 69 1012.2
20260508054521 39 40 0.0 2.0 0.00 0.00 0.00 69 1012.2
20260508054006 39 41 0.0 2.0 0.00 0.00 0.00 69 1012.2
20260508053509 39 40 0.0 2.0 0.00 0.00 0.00 68 1012.2
20260508053011 39 40 0.0 2.0 0.00 0.00 0.00 68 1012.2
20260508052507 39 41 0.0 2.0 0.00 0.00 0.00 68 1012.3
20260508052011 39 343 0.0 2.0 0.00 0.00 0.00 68 1012.3
20260508051513 39 22 0.0 2.0 0.00 0.00 0.00 68 1012.2
20260508051006 40 360 0.0 2.0 0.00 0.00 0.00 67 1012.3
20260508050512 40 36 0.0 2.0 0.00 0.00 0.00 67 1012.4
20260508050011 40 360 1.0 2.0 0.00 0.00 0.00 67 1012.4
20260508045506 40 323 1.0 3.0 0.00 0.00 0.00 67 1012.3
20260508045010 40 84 1.0 4.0 0.00 0.00 0.00 66 1012.2
20260508044513 40 38 1.0 4.0 0.00 0.00 0.00 66 1012.1
20260508044007 40 61 1.0 2.0 0.00 0.00 0.00 66 1012.2
20260508043506 40 81 0.0 2.0 0.00 0.00 0.00 66 1012.1
20260508043017 40 34 0.0 2.0 0.00 0.00 0.00 66 1012.0
20260508042508 40 46 0.0 2.0 0.00 0.00 0.00 66 1012.0
20260508042010 40 33 0.0 3.0 0.00 0.00 0.00 65 1012.0
20260508041516 41 64 1.0 3.0 0.00 0.00 0.00 65 1012.0
20260508041009 41 29 1.0 2.0 0.00 0.00 0.00 65 1012.0
20260508040513 41 75 0.0 2.0 0.00 0.00 0.00 65 1011.9
20260508040035 41 75 0.0 2.0 0.00 0.00 0.00 64 1011.8
20260508035507 41 80 1.0 2.0 0.00 0.00 0.00 64 1011.8
20260508035017 41 76 1.0 3.0 0.00 0.00 0.00 64 1011.8
20260508034520 41 62 2.0 3.0 0.00 0.00 0.00 64 1011.8
20260508034006 42 61 2.0 3.0 0.00 0.00 0.00 64 1011.7
20260508033511 42 72 2.0 3.0 0.00 0.00 0.00 64 1011.6
20260508033020 42 65 1.0 3.0 0.00 0.00 0.00 64 1011.5
20260508032509 42 71 2.0 3.0 0.00 0.00 0.00 64 1011.5
20260508032014 41 107 0.0 3.0 0.00 0.00 0.00 64 1011.5
20260508031523 42 140 1.0 3.0 0.00 0.00 0.00 64 1011.5
20260508031007 42 81 0.0 4.0 0.00 0.00 0.00 63 1011.5
20260508030511 42 111 0.0 4.0 0.00 0.00 0.00 63 1011.5
20260508030023 42 115 1.0 5.0 0.00 0.00 0.00 62 1011.5
20260508025510 42 79 2.0 5.0 0.00 0.00 0.00 62 1011.6
20260508025014 42 119 1.0 5.0 0.00 0.00 0.00 62 1011.4
20260508024526 42 55 2.0 5.0 0.00 0.00 0.00 62 1011.4
20260508024009 42 132 2.0 4.0 0.00 0.00 0.00 62 1011.4
20260508023505 42 113 1.0 3.0 0.00 0.00 0.00 62 1011.2
20260508023026 42 117 1.0 3.0 0.00 0.00 0.00 62 1011.2
20260508022510 42 107 1.0 3.0 0.00 0.00 0.00 61 1011.2
20260508022010 42 121 1.0 3.0 0.00 0.00 0.00 61 1011.2
20260508021502 42 89 1.0 3.0 0.00 0.00 0.00 61 1011.1
20260508021004 43 107 1.0 3.0 0.00 0.00 0.00 62 1010.9
20260508020503 43 65 1.0 4.0 0.00 0.00 0.00 62 1010.9
20260508020002 43 94 1.0 4.0 0.00 0.00 0.00 62 1010.9
20260508015503 43 139 1.0 4.0 0.00 0.00 0.00 62 1010.9
20260508015003 44 46 1.0 4.0 0.00 0.00 0.00 62 1010.9
20260508014506 44 115 2.0 4.0 0.00 0.00 0.00 62 1010.9
20260508014004 44 117 1.0 7.0 0.00 0.00 0.00 62 1010.7
20260508013505 45 144 3.0 7.0 0.00 0.00 0.00 62 1010.7
20260508013003 45 63 3.0 7.0 0.00 0.00 0.00 63 1010.7
20260508012504 45 67 3.0 6.0 0.00 0.00 0.00 63 1010.6
20260508012005 46 79 3.0 6.0 0.00 0.00 0.00 63 1010.4
20260508011507 46 65 3.0 6.0 0.00 0.00 0.00 63 1010.5
20260508011004 46 116 2.0 8.0 0.00 0.00 0.00 63 1010.6
20260508010506 46 74 3.0 9.0 0.00 0.00 0.00 62 1010.5
20260508010005 47 103 2.0 9.0 0.00 0.00 0.00 62 1010.5
20260508005503 47 81 2.0 9.0 0.00 0.00 0.00 60 1010.5
20260508005009 47 97 4.0 9.0 0.00 0.00 0.00 60 1010.4
20260508004502 47 60 2.0 10.0 0.00 0.00 0.00 60 1010.3
20260508004007 48 57 3.0 11.0 0.00 0.00 0.00 60 1010.2
20260508003511 48 130 3.0 10.0 0.00 0.00 0.00 59 1010.3
20260508003007 48 55 3.0 10.0 0.00 0.00 0.00 59 1010.2
20260508002506 49 98 2.0 10.0 0.00 0.00 0.00 59 1010.2
20260508002010 49 89 5.0 10.0 0.00 0.00 0.00 58 1010.1
20260508001508 49 107 4.0 10.0 0.00 0.00 0.00 56 1010.1
20260508001006 50 32 2.0 9.0 0.00 0.00 0.00 56 1010.0
20260508000512 50 121 2.0 9.0 0.00 0.00 0.00 54 1009.9
20260508000007 50 100 4.0 9.0 0.00 0.00 0.00 53 1009.9
20260507235512 51 58 4.0 8.0 0.00 0.00 0.00 52 1009.9
20260507235010 51 338 3.0 11.0 0.00 0.00 0.00 51 1009.8
20260507234516 51 36 4.0 11.0 0.00 0.00 0.00 50 1009.8
20260507234006 51 77 4.0 11.0 0.00 0.00 0.00 49 1009.9
20260507233506 51 79 4.0 9.0 0.00 0.00 0.00 48 1009.8
20260507233030 51 97 5.0 9.0 0.00 0.00 0.00 48 1009.8
20260507232508 51 84 3.0 9.0 0.00 0.00 0.00 48 1009.9
20260507232004 52 89 4.0 10.0 0.00 0.00 0.00 47 1009.8
20260507231510 52 55 5.0 8.0 0.00 0.00 0.00 46 1009.8
20260507231011 52 103 3.0 9.0 0.00 0.00 0.00 46 1009.8
20260507230509 52 81 3.0 9.0 0.00 0.00 0.00 47 1010.0
20260507230015 52 136 3.0 9.0 0.00 0.00 0.00 47 1010.0
20260507225505 52 125 3.0 8.0 0.00 0.00 0.00 47 1010.0
20260507225003 52 40 4.0 11.0 0.00 0.00 0.00 47 1010.0
20260507224514 52 42 4.0 11.0 0.00 0.00 0.00 47 1010.0
20260507224007 52 46 7.0 14.0 0.00 0.00 0.00 47 1010.1
20260507223503 52 98 6.0 14.0 0.00 0.00 0.00 47 1010.1
20260507223018 52 110 6.0 12.0 0.00 0.00 0.00 47 1010.1
20260507222502 52 95 6.0 10.0 0.00 0.00 0.00 47 1010.1
20260507222003 52 111 5.0 10.0 0.00 0.00 0.00 48 1010.0
20260507221528 52 65 4.0 7.0 0.00 0.00 0.00 48 1010.0
20260507221007 52 150 3.0 9.0 0.00 0.00 0.00 49 1010.1
20260507220503 52 126 1.0 10.0 0.00 0.00 0.00 48 1010.1
20260507220018 52 72 3.0 10.0 0.00 0.00 0.00 48 1010.1
20260507215503 53 148 5.0 10.0 0.00 0.00 0.00 46 1010.0
20260507215004 53 169 2.0 7.0 0.00 0.00 0.00 47 1009.9
20260507214520 53 146 3.0 7.0 0.00 0.00 0.00 47 1009.9
20260507214008 53 309 2.0 9.0 0.00 0.00 0.00 47 1009.9
20260507213503 54 163 4.0 9.0 0.00 0.00 0.00 46 1009.8
20260507213027 54 167 1.0 7.0 0.00 0.00 0.00 46 1009.8
20260507212502 53 107 4.0 10.0 0.00 0.00 0.00 47 1009.9
20260507212003 52 169 4.0 10.0 0.00 0.00 0.00 49 1009.9
20260507211533 52 53 3.0 8.0 0.00 0.00 0.00 49 1010.0
20260507211004 52 227 1.0 9.0 0.00 0.00 0.00 47 1010.0
20260507210503 52 131 5.0 9.0 0.00 0.00 0.00 47 1010.0
20260507210029 53 121 4.0 9.0 0.00 0.00 0.00 45 1010.1
20260507205503 54 97 4.0 9.0 0.00 0.00 0.00 45 1009.9
20260507205005 54 148 2.0 9.0 0.00 0.00 0.00 47 1009.9
20260507204524 54 142 5.0 9.0 0.00 0.00 0.00 47 1010.0
20260507204004 55 143 2.0 9.0 0.00 0.00 0.00 46 1009.9
20260507203506 54 141 6.0 9.0 0.00 0.00 0.00 47 1010.0
20260507203003 54 119 5.0 8.0 0.00 0.00 0.00 48 1010.0
20260507202511 55 136 2.0 9.0 0.00 0.00 0.00 46 1010.1
20260507202006 54 216 2.0 9.0 0.00 0.00 0.00 46 1010.2
20260507201506 53 71 4.0 9.0 0.00 0.00 0.00 47 1010.3
20260507201008 53 98 4.0 8.0 0.00 0.00 0.00 49 1010.4
20260507200505 52 61 3.0 10.0 0.00 0.00 0.00 49 1010.5
20260507200004 50 117 4.0 10.0 0.00 0.00 0.00 51 1010.6
20260507195504 50 105 4.0 11.0 0.00 0.00 0.00 51 1010.4
20260507195011 51 127 2.0 11.0 0.00 0.00 0.00 50 1010.7
20260507194511 51 132 4.0 14.0 0.00 0.00 0.00 50 1010.8
20260507194005 51 134 1.0 14.0 0.00 0.00 0.00 50 1010.8
20260507193511 50 150 7.0 14.0 0.00 0.00 0.00 51 1010.9
20260507193007 50 143 2.0 9.0 0.00 0.00 0.00 52 1011.3
20260507192504 51 231 1.0 7.0 0.00 0.00 0.00 51 1011.4
20260507192007 51 232 1.0 8.0 0.00 0.00 0.00 51 1011.2
20260507191508 51 52 3.0 10.0 0.00 0.00 0.00 47 1011.2
20260507191003 52 30 2.0 14.0 0.00 0.00 0.00 46 1010.9
20260507190506 52 108 3.0 14.0 0.00 0.00 0.00 45 1010.9
20260507190013 54 161 8.0 13.0 0.00 0.00 0.00 41 1010.7
20260507185509 54 89 3.0 7.0 0.00 0.00 0.00 38 1010.5
20260507185008 55 118 3.0 6.0 0.00 0.00 0.00 37 1010.6
20260507184510 55 327 2.0 4.0 0.00 0.00 0.00 36 1010.6
20260507184004 56 328 0.0 2.0 0.00 0.00 0.00 36 1010.7
20260507183510 56 225 0.0 4.0 0.00 0.00 0.00 1010.9
20260507183013 55 86 2.0 4.0 0.00 0.00 0.00 1011.0
20260507182504 56 181 2.0 6.0 0.00 0.00 0.00 36 1011.2
20260507182013 57 147 2.0 6.0 0.00 0.00 0.00 36 1011.4
20260507181509 56 139 3.0 7.0 0.00 0.00 0.00 36 1011.3
20260507181007 56 163 2.0 7.0 0.00 0.00 0.00 37 1011.4
20260507180510 55 198 2.0 9.0 0.00 0.00 0.00 37 1011.4
20260507180029 55 209 5.0 10.0 0.00 0.00 0.00 36 1011.5
20260507175507 56 128 4.0 10.0 0.00 0.00 0.00 35 1011.5
20260507175006 57 196 5.0 12.0 0.00 0.00 0.00 35 1011.5
20260507174514 57 172 2.0 12.0 0.00 0.00 0.00 37 1011.6
20260507174006 56 239 4.0 11.0 0.00 0.00 0.00 37 1011.8
20260507173517 56 265 4.0 11.0 0.00 0.00 0.00 36 1011.9
20260507173041 54 165 1.0 7.0 0.00 0.00 0.00 38 1011.9
20260507172509 54 128 3.0 7.0 0.00 0.00 0.00 37 1012.1
20260507172002 54 194 2.0 7.0 0.00 0.00 0.00 38 1012.2
20260507171518 55 121 3.0 7.0 0.00 0.00 0.00 37 1012.3
20260507171006 55 143 2.0 8.0 0.00 0.00 0.00 37 1012.4
20260507170503 54 208 3.0 8.0 0.00 0.00 0.00 38 1012.3
20260507170021 53 144 2.0 10.0 0.00 0.00 0.00 39 1012.4
20260507165512 53 286 2.0 10.0 0.00 0.00 0.00 38 1012.6
20260507165004 53 234 2.0 10.0 0.00 0.00 0.00 37 1012.6
20260507164528 55 182 6.0 10.0 0.00 0.00 0.00 36 1012.7
20260507164011 54 201 3.0 7.0 0.00 0.00 0.00 38 1012.8
20260507163504 53 204 2.0 6.0 0.00 0.00 0.00 38 1012.9
20260507163019 54 178 1.0 7.0 0.00 0.00 0.00 38 1012.9
20260507162508 52 161 2.0 7.0 0.00 0.00 0.00 39 1012.9
20260507162003 52 250 3.0 7.0 0.00 0.00 0.00 38 1013.1
20260507161528 52 147 3.0 5.0 0.00 0.00 0.00 39 1013.1
20260507161010 51 311 2.0 6.0 0.00 0.00 0.00 39 1013.1
20260507160510 53 125 2.0 6.0 0.00 0.00 0.00 39 1013.2
20260507160025 51 148 1.0 7.0 0.00 0.00 0.00 40 1013.3
20260507155509 50 21 3.0 10.0 0.00 0.00 0.00 40 1013.3
20260507155006 51 258 1.0 10.0 0.00 0.00 0.00 38 1013.4
20260507154524 49 258 2.0 5.0 0.00 0.00 0.00 41 1013.5
20260507154013 49 123 2.0 10.0 0.00 0.00 0.00 41 1013.6
20260507153505 50 288 6.0 10.0 0.00 0.00 0.00 39 1013.7
20260507153031 50 317 3.0 9.0 0.00 0.00 0.00 40 1013.8
20260507152511 49 303 0.0 9.0 0.00 0.00 0.00 42 1013.8
20260507152006 48 189 2.0 9.0 0.00 0.00 0.00 43 1013.9
20260507151526 49 194 1.0 8.0 0.00 0.00 0.00 42 1014.0
20260507151009 49 273 4.0 8.0 0.00 0.00 0.00 43 1014.1
20260507150506 48 56 0.0 6.0 0.00 0.00 0.00 45 1014.2
20260507150024 47 291 2.0 6.0 0.00 0.00 0.00 45 1014.2
20260507145512 48 175 2.0 5.0 0.00 0.00 0.00 46 1014.3
20260507145008 48 192 1.0 4.0 0.00 0.00 0.00 46 1014.4
20260507144534 47 182 1.0 6.0 0.00 0.00 0.00 48 1014.4
20260507144009 46 277 4.0 6.0 0.00 0.00 0.00 47 1014.4
20260507143512 46 163 1.0 4.0 0.00 0.00 0.00 48 1014.5
20260507143029 45 205 0.0 4.0 0.00 0.00 0.00 50 1014.7
20260507142512 44 211 3.0 7.0 0.00 0.00 0.00 51 1014.6
20260507142006 44 254 3.0 7.0 0.00 0.00 0.00 50 1014.6
20260507141534 44 255 4.0 7.0 0.00 0.00 0.00 50 1014.6
20260507141006 43 246 3.0 7.0 0.00 0.00 0.00 51 1014.8
20260507140502 43 298 2.0 7.0 0.00 0.00 0.00 52 1014.9
20260507140004 43 264 1.0 7.0 0.00 0.00 0.00 54 1015.0
20260507135502 43 227 1.0 5.0 0.00 0.00 0.00 54 1015.0
20260507135005 42 246 0.0 9.0 0.00 0.00 0.00 56 1015.1
20260507134503 42 327 5.0 9.0 0.00 0.00 0.00 54 1015.2
20260507134003 43 282 4.0 9.0 0.00 0.00 0.00 54 1015.2
20260507133503 42 323 5.0 7.0 0.00 0.00 0.00 54 1015.3
20260507133002 42 336 2.0 7.0 0.00 0.00 0.00 55 1015.3
20260507132502 41 277 2.0 7.0 0.00 0.00 0.00 56 1015.4
20260507132006 41 297 4.0 7.0 0.00 0.00 0.00 56 1015.3
20260507131512 41 263 1.0 4.0 0.00 0.00 0.00 57 1015.3
20260507131003 41 288 2.0 4.0 0.00 0.00 0.00 60 1015.4
20260507130502 41 227 1.0 6.0 0.00 0.00 0.00 61 1015.4
20260507130003 41 247 3.0 9.0 0.00 0.00 0.00 61 1015.6
20260507125504 40 269 3.0 9.0 0.00 0.00 0.00 61 1015.3
20260507125002 40 246 5.0 9.0 0.00 0.00 0.00 61 1015.5
20260507124509 40 247 5.0 8.0 0.00 0.00 0.00 61 1015.3
20260507124004 40 215 1.0 8.0 0.00 0.00 0.00 61 1015.0
20260507123503 40 221 2.0 8.0 0.00 0.00 0.00 60 1014.9
20260507123004 40 246 2.0 6.0 0.00 0.00 0.00 61 1015.1
20260507122503 40 226 1.0 4.0 0.00 0.00 0.00 61 1015.0
20260507122003 39 254 2.0 5.0 0.00 0.00 0.00 64 1014.9
20260507121508 39 228 2.0 5.0 0.00 0.00 0.00 66 1015.0
20260507121003 38 205 0.0 4.0 0.00 0.00 0.00 68 1014.9
20260507120503 37 206 1.0 4.0 0.00 0.00 0.00 69 1015.0
20260507120006 36 192 1.0 4.0 0.00 0.00 0.00 69 1014.9
20260507115503 35 216 0.0 3.0 0.00 0.00 0.00 72 1014.8
20260507115000 35 209 0.0 2.0 0.00 0.00 0.00 73 1014.7
20260507114503 35 209 0.0 2.0 0.00 0.00 0.00 73 1014.7
20260507114001 34 209 1.0 2.0 0.00 0.00 0.00 73 1014.7
20260507113500 34 205 1.0 2.0 0.00 0.00 0.00 74 1014.6
20260507113023 33 221 0.0 2.0 0.00 0.00 0.00 75 1014.7
20260507112504 33 248 1.0 3.0 0.00 0.00 0.00 75 1014.5
20260507112004 33 227 1.0 3.0 0.00 0.00 0.00 75 1014.5
20260507111506 33 219 1.0 3.0 0.00 0.00 0.00 74 1014.5
20260507111002 32 252 1.0 2.0 0.00 0.00 0.00 75 1014.4
20260507110503 32 202 1.0 2.0 0.00 0.00 0.00 75 1014.3
20260507110006 32 202 1.0 2.0 0.00 0.00 0.00 75 1014.2
20260507105504 32 201 0.0 2.0 0.00 0.00 0.00 76 1014.2
20260507105003 31 201 0.0 2.0 0.00 0.00 0.00 76 1014.3
20260507104508 31 201 0.0 2.0 0.00 0.00 0.00 76 1014.3
20260507104005 32 201 0.0 2.0 0.00 0.00 0.00 76 1014.5
20260507103505 32 201 0.0 2.0 0.00 0.00 0.00 76 1014.4
20260507103006 32 201 1.0 2.0 0.00 0.00 0.00 76 1014.4
20260507102503 31 201 1.0 2.0 0.00 0.00 0.00 76 1014.4
20260507102006 31 201 1.0 2.0 0.00 0.00 0.00 76 1014.4
20260507101515 32 201 0.0 2.0 0.00 0.00 0.00 76 1014.4
20260507101005 32 196 0.0 2.0 0.00 0.00 0.00 76 1014.4
20260507100503 32 211 1.0 2.0 0.00 0.00 0.00 76 1014.5
20260507100011 32 223 1.0 2.0 0.00 0.00 0.00 76 1014.6
20260507095503 32 225 1.0 2.0 0.00 0.00 0.00 75 1014.6
20260507095003 32 248 1.0 2.0 0.00 0.00 0.00 75 1014.6
20260507094508 32 229 1.0 2.0 0.00 0.00 0.00 75 1014.5
20260507094002 32 234 1.0 2.0 0.00 0.00 0.00 74 1014.5
20260507093506 33 218 2.0 2.0 0.00 0.00 0.00 74 1014.4
20260507093008 33 233 1.0 3.0 0.00 0.00 0.00 74 1014.4
20260507092507 33 232 1.0 3.0 0.00 0.00 0.00 73 1014.4
20260507092006 33 229 1.0 2.0 0.00 0.00 0.00 73 1014.4
20260507091511 33 215 1.0 2.0 0.00 0.00 0.00 72 1014.4
20260507091003 33 232 1.0 2.0 0.00 0.00 0.00 72 1014.4
20260507090503 33 232 0.0 2.0 0.00 0.00 0.00 72 1014.3
20260507090010 33 232 1.0 2.0 0.00 0.00 0.00 72 1014.3
20260507085503 33 232 0.0 3.0 0.00 0.00 0.00 72 1014.3
20260507085003 33 232 0.0 3.0 0.00 0.00 0.00 71 1014.4
20260507084512 33 225 1.0 2.0 0.00 0.00 0.00 71 1014.4
20260507084004 33 225 1.0 2.0 0.00 0.00 0.00 71 1014.5
20260507083503 34 211 0.0 2.0 0.00 0.00 0.00 71 1014.5
20260507083012 34 211 0.0 2.0 0.00 0.00 0.00 70 1014.4
20260507082502 34 225 1.0 3.0 0.00 0.00 0.00 69 1014.4
20260507082005 34 224 1.0 3.0 0.00 0.00 0.00 69 1014.3
20260507081513 34 238 2.0 3.0 0.00 0.00 0.00 68 1014.4
20260507081003 35 234 1.0 2.0 0.00 0.00 0.00 68 1014.4